Location: Kaarina
(60.4167°N, 22.4167°E)
Time: 01:53:54
(UTC+03:00)

Cosmos 2298 Rocket - Pass Details

Date: 24 August 2019
Orbit: 775 x 784 km, 74.0° (Epoch: 18 September)

Event Time Altitude Azimuth Distance (km) Brightness Sun altitude
Exits shadow 22:47:42 - 184° (S) 2,819 6.5 -11.5°
Reaches altitude 10° 22:49:00 10° 181° (S) 2,336 6.1 -11.6°
Maximum altitude 22:54:02 45° 110° (ESE) 1,066 4.4 -12.0°
Drops below altitude 10° 22:59:06 10° 39° (NE) 2,355 6.7 -12.4°
Sets 23:01:34 0° 34° (NNE) 3,289 7.5 -12.6°
